Flag for Norway Weather past 2 weeks in Hammerfest, Norway

Now
37 °F

Passing clouds.


Feels Like: 30 °F
Forecast: 38 / 42 °F
Wind: 12 mph from Northwest

Location: Hammerfest

Current Time: Sep 22, 2014 at 9:02:25 PM

Latest Report: Sep 22, 2014 at 7:50 PM


Visibility: N/A

Pressure: 30.07 "Hg

Humidity: 75%

Dew point: 30 °F

Location of HammerfestLocation

Historic Weather in Hammerfest — Graph

°F

Hammerfest temperature yesterday

Maximum temperature yesterday: 39 °F (at 12:50 AM)
Minimum temperature yesterday: 32 °F (at 8:50 PM)
Average temperature yesterday: 37 °F

Past Weeks' High & Low Weather Summary

 TemperatureHumidityPressure
High55 °F (Sep 11, 10:50 AM)100% (Sep 7, 8:50 PM)30.33 "Hg (Sep 7, 8:50 PM)
Low30 °F (Sep 22, 7:50 AM)54% (Sep 15, 8:50 AM)29.56 "Hg (Sep 11, 8:50 AM)
Average45 °F77%29.99 "Hg
* Reported Sep 7 6:58 PM — Sep 22 6:50 PM, Hammerfest, Weather by CustomWeather, © 2014

Note: Actual official high and low records may vary slightly from our data, if they occured in-between our weather recording intervals... More about our weather records

Advertising

Hammerfest weather history for previous 24 hours

 ConditionsComfort  
Time TempWeatherWind HumidityBarometerVisibility
6:50 PM
Sep 22
37 °FScattered clouds.7 mph70%30.07 "HgN/A
4:50 PM37 °FPartly sunny.9 mph75%30.07 "HgN/A
3:50 PM34 °FBroken clouds.2 mph93%30.07 "HgN/A
2:50 PM37 °FScattered showers. Partly sunny.9 mph70%30.07 "HgN/A
1:50 PM39 °FScattered showers. Broken clouds.2 mph65%30.04 "HgN/A
12:50 PM36 °FScattered showers. Scattered clouds.5 mph70%30.04 "HgN/A
11:50 AM36 °FScattered showers. Partly sunny.6 mph75%30.04 "HgN/A
10:50 AM34 °FScattered showers. Scattered clouds.7 mph87%30.01 "HgN/A
9:50 AM32 °FScattered showers. Scattered clouds.8 mph87%30.01 "HgN/A
8:50 AM32 °FSnow flurries. Broken clouds.15 mph93%29.98 "HgN/A
7:50 AM30 °FSnow. Scattered clouds.13 mph93%29.98 "HgN/A
6:50 AM32 °FSnow. Partly cloudy.6 mph87%29.95 "HgN/A
5:50 AM32 °FScattered showers. Partly cloudy.3 mph87%29.95 "HgN/A
4:50 AM36 °FPartly cloudy.8 mph70%29.92 "HgN/A
3:50 AM34 °FPassing clouds.8 mph81%29.92 "HgN/A
1:50 AM32 °FSnow flurries. Partly cloudy.7 mph87%29.92 "Hg4 mi
12:50 AM36 °FPartly cloudy.2 mph70%29.89 "HgN/A
11:50 PM
Sep 21
36 °FScattered showers. Passing clouds.2 mph70%29.89 "HgN/A
10:50 PM36 °FSnow flurries. Partly cloudy.9 mph75%29.86 "HgN/A
9:50 PM36 °FPartly cloudy.2 mph70%29.86 "HgN/A
Weather by CustomWeather, © 2014

See weather overviewHow to use our weather pages